カタログに戻る

NAVSTAR 51

USA 166

運用中ナビゲーションHEO
NORAD 27663·PAYLOAD·🇺🇸 United States

打ち上げ Jan 29, 2003 から Cape Canaveral Space Force Station

Loading…

次のパス (今後24時間)

TLE

最新Source: CelesTrak SupGP

元期: Sep 16, 2026, 16:44 UTC

1 27663C 03005A   26259.69756944  .00000000  00000+0  00000+0 0  2593
2 27663  54.8682 211.3358 0150501  53.6318 199.7434  2.00555650    16

AllMySatでNAVSTAR 51をリアルタイム追跡

Download on the App Store